Location: Brachbach
(49.1847°N, 9.7240°E)
Time: 01:59:30
(UTC+00:00)

Cosmos 1703 Rocket - Pass Details

Date: 23 May 2024
Orbit: 602 x 629 km, 82.5° (Epoch: 13 June)

Event Time Altitude Azimuth Distance (km) Brightness Sun altitude
Exits shadow 00:58:58 30° 185° (S) 1,122 4.3 -16.6°
Maximum altitude 01:01:08 85° 98° (E) 634 3.5 -16.5°
Drops below altitude 10° 01:05:36 10° 11° (N) 2,015 7.4 -16.2°
Sets 01:07:51 0° 11° (N) 2,929 8.5 -16.0°
